Fort Benning, AL

11:51 PM CDT on March 26, 2017 (GMT -0500)
Lawson Army Air Field

Weather History for KLSF - November, 2013

Change the Weather History Date:

Monday, November 4, 2013

  Actual Average Record
Temperature  
Mean Temperature 52 °F -  
Max Temperature 70 °F 71 °F 84 °F (2000)
Min Temperature 35 °F 44 °F 28 °F (1999)
Degree Days  
Heating Degree Days 12    
Growing Degree Days 2 (Base 50)    
Moisture  
Dew Point 39 °F    
Average Humidity 91    
Maximum Humidity 100    
Minimum Humidity 43    
Precipitation  
Precipitation 0.00 in - - ()
Sea Level Pressure  
Sea Level Pressure 30.30 in    
Wind  
Wind Speed 1 mph (NW)    
Max Wind Speed 15 mph    
Max Gust Speed -    
Visibility 4 miles    
Events Fog    
Averages and records for this station are not official NWS values.
T = Trace of Precipitation, MM = Missing Value Source: NWS Daily Summary

Daily Weather History Graph

Daily Weather History Graph

Search for Another Location

Airport or City:

Trip Planner

Search our weather history database for the weather conditions in past years. The results will help you decide how hot, cold, wet, or windy it might be!

Date:

Astronomy

Nov. 04, 2013 Rise Set
Actual Time 6:59 AM EST 5:46 PM EST
Civil Twilight 6:34 AM EST 6:12 PM EST
Nautical Twilight 6:05 AM EST 6:41 PM EST
Astronomical Twilight 5:36 AM EST 7:10 PM EST
Moon 8:06 AM EST (11/4) 6:54 PM EST (11/4)
Length of Visible Light 11h 38m
Length of Day
10h 47m
New Moon, 2% of the Moon is Illuminated
Nov 4
New Moon
Nov 10
First Quarter
Nov 17
Full
Nov 25
Last Quarter
Dec 2
New

Hourly Weather History & Observations

Time (EST) Temp. Windchill Dew Point Humidity Pressure Visibility Wind Dir Wind Speed Gust Speed Precip Events Conditions
12:33 AM 39.2 °F - 39.2 °F 100% 30.28 in 0.8 mi Calm Calm - N/A   Clear
12:38 AM 39.2 °F - 39.2 °F 100% 30.28 in 1.2 mi Calm Calm - N/A   Clear
12:43 AM 39.2 °F - 39.2 °F 100% 30.28 in 1.5 mi Calm Calm - N/A   Clear
12:48 AM 39.2 °F - 39.2 °F 100% 30.28 in 1.8 mi Calm Calm - N/A   Clear
12:53 AM 39.2 °F - 39.2 °F 100% 30.28 in 4.0 mi Calm Calm - N/A   Clear
12:58 AM 39.9 °F - 39.6 °F 99% 30.29 in 4.0 mi Calm Calm - N/A   Clear
1:03 AM 41.0 °F - 39.2 °F 93% 30.28 in 5.0 mi Calm Calm - N/A   Clear
1:08 AM 39.2 °F - 39.2 °F 100% 30.28 in 1.2 mi Calm Calm - N/A   Clear
1:13 AM 39.2 °F - 39.2 °F 100% 30.28 in 0.5 mi Calm Calm - N/A Fog Fog
1:18 AM 37.4 °F - 37.4 °F 100% 30.28 in 0.2 mi Calm Calm - N/A Fog Fog
1:28 AM 39.2 °F - 39.2 °F 100% 30.28 in 0.5 mi Calm Calm - N/A Fog Fog
1:33 AM 39.2 °F - 39.2 °F 100% 30.28 in 0.8 mi Calm Calm - N/A   Clear
1:38 AM 39.2 °F - 39.2 °F 100% 30.28 in 1.2 mi Calm Calm - N/A   Clear
1:43 AM 39.2 °F - 39.2 °F 100% 30.28 in 2.5 mi Calm Calm - N/A   Clear
1:48 AM 39.2 °F - 39.2 °F 100% 30.29 in 3.0 mi Calm Calm - N/A   Clear
1:53 AM 39.2 °F - 39.2 °F 100% 30.28 in 2.0 mi Calm Calm - N/A   Clear
1:58 AM 39.4 °F - 39.2 °F 99% 30.29 in 2.5 mi Calm Calm - N/A   Clear
2:03 AM 39.2 °F - 39.2 °F 100% 30.28 in 4.0 mi Calm Calm - N/A   Clear
2:08 AM 39.2 °F - 37.4 °F 93% 30.28 in 5.0 mi North 1.2 mph - N/A   Clear
2:28 AM 37.4 °F - 37.4 °F 100% 30.28 in 0.8 mi Calm Calm - N/A   Clear
2:33 AM 39.2 °F - 37.4 °F 93% 30.28 in 0.5 mi NW 1.2 mph - N/A Fog Fog
2:58 AM 37.4 °F - 37.4 °F 100% 30.29 in 0.5 mi WNW 2.3 mph - N/A Fog Fog
3:03 AM 37.4 °F - 37.4 °F 100% 30.28 in 1.2 mi West 2.3 mph - N/A   Clear
3:08 AM 37.4 °F - 37.4 °F 100% 30.28 in 2.5 mi NW 1.2 mph - N/A   Clear
3:13 AM 37.4 °F - 37.4 °F 100% 30.28 in 4.0 mi West 2.3 mph - N/A   Clear
3:18 AM 37.4 °F - 37.4 °F 100% 30.29 in 1.5 mi NW 2.3 mph - N/A   Clear
3:23 AM 39.2 °F - 37.4 °F 93% 30.29 in 0.8 mi NW 1.2 mph - N/A   Clear
3:28 AM 39.2 °F - 39.2 °F 100% 30.29 in 1.0 mi Calm Calm - N/A   Clear
3:33 AM 37.4 °F - 37.4 °F 100% 30.29 in 1.8 mi WNW 2.3 mph - N/A   Clear
3:38 AM 37.4 °F 34.9 °F 37.4 °F 100% 30.28 in 2.0 mi West 3.5 mph - N/A   Clear
3:43 AM 37.4 °F - 37.4 °F 100% 30.28 in 1.8 mi West 2.3 mph - N/A   Clear
3:48 AM 37.4 °F 33.8 °F 37.4 °F 100% 30.29 in 2.0 mi WNW 4.6 mph - N/A   Clear
3:53 AM 37.4 °F 34.9 °F 37.4 °F 100% 30.29 in 4.0 mi WNW 3.5 mph - N/A   Clear
3:58 AM 37.6 °F 34.0 °F 37.2 °F 99% 30.30 in 7.0 mi WNW 4.6 mph - N/A   Clear
4:03 AM 37.4 °F 33.8 °F 37.4 °F 100% 30.29 in 10.0 mi WNW 4.6 mph - N/A   Clear
4:08 AM 37.4 °F 34.9 °F 37.4 °F 100% 30.29 in 9.0 mi WNW 3.5 mph - N/A   Clear
4:18 AM 39.2 °F - 39.2 °F 100% 30.28 in 10.0 mi NW 1.2 mph - N/A   Clear
4:28 AM 37.4 °F - 37.4 °F 100% 30.29 in 2.0 mi NW 1.2 mph - N/A   Clear
4:33 AM 37.4 °F - 37.4 °F 100% 30.29 in 1.8 mi WNW 2.3 mph - N/A   Clear
4:38 AM 37.4 °F - 37.4 °F 100% 30.29 in 3.0 mi Calm Calm - N/A   Clear
4:43 AM 37.4 °F - 37.4 °F 100% 30.28 in 2.5 mi Calm Calm - N/A   Clear
4:48 AM 37.4 °F - 37.4 °F 100% 30.28 in 3.0 mi Calm Calm - N/A   Clear
4:53 AM 37.4 °F - 37.4 °F 100% 30.28 in 1.8 mi Calm Calm - N/A   Clear
4:58 AM 37.4 °F - 37.4 °F 100% 30.30 in 0.8 mi Calm Calm - N/A   Clear
5:03 AM 37.4 °F - 37.4 °F 100% 30.29 in 0.8 mi Calm Calm - N/A   Clear
5:08 AM 37.4 °F - 37.4 °F 100% 30.29 in 1.2 mi Calm Calm - N/A   Clear
5:13 AM 37.4 °F - 37.4 °F 100% 30.29 in 2.0 mi Calm Calm - N/A   Clear
5:18 AM 37.4 °F - 37.4 °F 100% 30.30 in 0.8 mi WNW 1.2 mph - N/A   Clear
5:23 AM 37.4 °F - 37.4 °F 100% 30.30 in 0.5 mi Calm Calm - N/A Fog Fog
5:28 AM 37.4 °F - 37.4 °F 100% 30.30 in 0.8 mi NNW 1.2 mph - N/A   Clear
5:33 AM 37.4 °F - 37.4 °F 100% 30.30 in 1.0 mi Calm Calm - N/A   Clear
5:38 AM 37.4 °F - 37.4 °F 100% 30.29 in 3.0 mi Calm Calm - N/A   Clear
5:43 AM 37.4 °F - 37.4 °F 100% 30.30 in 8.0 mi Calm Calm - N/A   Clear
5:48 AM 37.4 °F - 37.4 °F 100% 30.30 in 2.5 mi Calm Calm - N/A   Clear
5:53 AM 37.4 °F - 37.4 °F 100% 30.30 in 0.8 mi WNW 1.2 mph - N/A   Clear
5:58 AM 35.6 °F - 35.6 °F 100% 30.32 in 0.5 mi WNW 2.3 mph - N/A Fog Fog
6:08 AM 37.4 °F 34.9 °F 35.6 °F 93% 30.31 in 1.5 mi WNW 3.5 mph - N/A   Clear
6:13 AM 37.4 °F - 37.4 °F 100% 30.31 in 4.0 mi WNW 2.3 mph - N/A   Clear
6:18 AM 37.4 °F - 37.4 °F 100% 30.31 in 5.0 mi WNW 2.3 mph - N/A   Clear
6:23 AM 37.4 °F - 37.4 °F 100% 30.31 in 4.0 mi WNW 2.3 mph - N/A   Clear
6:33 AM 37.4 °F - 37.4 °F 100% 30.31 in 6.0 mi NW 2.3 mph - N/A   Clear
6:43 AM 37.4 °F - 37.4 °F 100% 30.30 in 10.0 mi Calm Calm - N/A   Clear
6:58 AM 35.6 °F 30.7 °F 35.6 °F 100% 30.33 in 1.5 mi WNW 5.8 mph - N/A   Clear
7:03 AM 35.6 °F 31.7 °F 35.6 °F 100% 30.32 in 1.8 mi WNW 4.6 mph - N/A   Clear
7:08 AM 35.6 °F 32.8 °F 33.8 °F 93% 30.32 in 4.0 mi NW 3.5 mph - N/A   Clear
7:58 AM 40.5 °F 38.4 °F 40.3 °F 99% 30.35 in 10.0 mi NW 3.5 mph - N/A   Clear
8:58 AM 47.8 °F - 47.8 °F 100% 30.35 in 10.0 mi Calm Calm - N/A   Clear
9:58 AM 59.5 °F - 43.7 °F 56% 30.37 in 10.0 mi East 10.4 mph - N/A   Clear
10:58 AM 63.0 °F - 46.2 °F 54% 30.37 in 10.0 mi East 15.0 mph - N/A   Clear
11:58 AM 65.7 °F - 48.0 °F 53% 30.36 in 10.0 mi East 10.4 mph - N/A   Clear
12:58 PM 68.9 °F - 48.4 °F 48% 30.34 in 10.0 mi East 4.6 mph - N/A   Clear
1:58 PM 69.8 °F - 47.8 °F 46% 30.32 in 10.0 mi NE 8.1 mph - N/A   Clear
2:58 PM 70.5 °F - 48.7 °F 46% 30.31 in 10.0 mi ENE 8.1 mph - N/A   Clear
3:58 PM 70.0 °F - 46.2 °F 43% 30.30 in 10.0 mi ESE 6.9 mph - N/A   Clear
4:58 PM 68.4 °F - 45.7 °F 44% 30.30 in 10.0 mi East 6.9 mph - N/A   Clear
5:58 PM 61.3 °F - 47.7 °F 61% 30.32 in 10.0 mi East 5.8 mph - N/A   Clear
6:58 PM 55.0 °F - 46.2 °F 72% 30.34 in 10.0 mi East 5.8 mph - N/A   Clear
7:58 PM 57.7 °F - 44.4 °F 61% 30.35 in 10.0 mi East 6.9 mph - N/A   Clear
8:58 PM 56.8 °F - 43.9 °F 62% 30.36 in 10.0 mi ENE 4.6 mph - N/A   Clear
9:58 PM 54.0 °F - 42.3 °F 65% 30.37 in 10.0 mi North 5.8 mph - N/A   Clear
10:58 PM 48.6 °F - 41.9 °F 78% 30.37 in 10.0 mi North 5.8 mph - N/A   Clear
11:58 PM 55.0 °F - 37.0 °F 51% 30.36 in 10.0 mi East 6.9 mph - N/A   Clear